Погода в Большой Галке

Россия / Томская область     56°55′27″N   81°57′57″E
темп.,
°C
ветер,
м/с
пор.,
м/с
влажн.,
%
обл.,
%
осадки,
мм/ч
давл.,
гПа
погр.,
м
26 февраля, пт
пт2601:00−23ююз3994100 0.2 1018719
04:00−24ююз3895100 0.1 1018509
07:00−25юз3896100 0.1 1020449
10:00−25зюз379599 0.1 1022434
13:00−24з3590100 0.1 1025646
16:00−23зюз4688100 0.0 1027774
19:00−26зюз3794100 0.1 1029287
22:00−27юз3796100 0.0 1031388
27 февраля, сб
сб2701:00−27юз3696100 0.1 1032325
04:00−28юз3697100 0.1 1032255
07:00−29юз2697100 0.1 1033240
10:00−28юз3696100 0.1 1033264
13:00−25юз3593100 0.1 1034482
16:00−22юз3591100 0.0 1034593
19:00−26юз2396100 0.1 103544
22:00−29юз239963 0.0 103565
28 февраля, вс
вс2801:00−31юз239841 0.0 103645
04:00−32ююз239851 0.0 103635
07:00−33ю229837 0.0 103624
10:00−30ююв259712 0.0 1036133
13:00−23ююв249540 0.0 1034312
16:00−19юв359290 0.0 1032428
19:00−20вюв389696 0.0 1029284
22:00−21вюв3995100 0.0 1027305
1 марта, пн
пн101:00−21в389799 0.0 1024241
04:00−19в4996100 0.1 1020306
07:00−19в4996100 0.2 1018307
10:00−17всв4995100 0.1 1015330
13:00−13всв4894100 0.2 1013379
16:00−11всв4894100 0.3 1012433
19:00−12всв3895100 0.6 1011395
22:00−13всв3995100 0.4 1010365
2 марта, вт
вт201:00−13всв3795100 0.9 1009337
04:00−14св2696100 0.4 1008304
07:00−15св249797 0.6 1009119
10:00−15св129698 0.3 1009150
13:00−11з119299 0.6 1010356
16:00−10зсз2392100 0.5 1011441
19:00−11зсз1296100 0.8 101224
22:00−13з2596100 0.3 1013190